Regional Weather Roundup
Issued by NWS Kansas City/Pleasant Hill, MO

Home | Current Version | Previous Version | Text Only | Print | Product List | Glossary On
Versions: 1 2 3 4 5 6 7 8 9 10 11 12 13 14 15 16 17 18 19 20 21 22 23 24 25 26 27
000
ASUS43 KEAX 250210
RWREAX

WEATHER ROUNDUP FOR EASTERN KANSAS AND NORTHWEST MISSOURI
NATIONAL WEATHER SERVICE KANSAS CITY/PLEASANT HILL MO
900 PM CDT TUE MAY 24 2016

KSZ040-057-103>105-MOZ028-029-037-043-250300-
...KANSAS CITY METROPOLITAN AREA...

CITY           SKY/WX    TMP DP  RH WIND       PRES   REMARKS
K.C. INTL      CLOUDY    75  65  70 SE8       29.89F
K.C. DOWNTOWN  CLOUDY    77  65  66 SE6       29.88F
LEES SUMMIT    CLOUDY    74  67  78 SE7       29.91F
OLATHE - IXD   CLOUDY    75  69  81 SE6       29.89S
OLATHE - OJC   CLOUDY    74  68  81 SE6       29.89F
LAWRENCE       MOCLDY    75  69  81 SE9       29.87S

$$

MOZ001>008-011>017-020>025-030>033-038>040-044>046-053-054-250300-
...NORTHERN AND CENTRAL MISSOURI...

CITY           SKY/WX    TMP DP  RH WIND       PRES   REMARKS
ST. JOSEPH     CLEAR     75  66  73 E8        29.87F
MOSBY          CLEAR     72  63  73 SE3       29.89F
WARRENSBURG    CLOUDY    72  63  73 SE9       29.92S
WHITEMAN AFB   MOCLDY    72  64  76 S10       29.93S
CLINTON        CLOUDY    68  63  83 S8        29.94S
SEDALIA        CLOUDY    71  63  75 SE9       29.96S
WARSAW         NOT AVBL
CHILLICOTHE      N/A     71  65  81 CALM      29.93S
KIRKSVILLE     CLOUDY    67  64  90 S7        29.94F

$$

MOZ041-047>049-056>058-063>065-088>090-097-250300-
...EASTERN AND SOUTHERN MISSOURI...

CITY           SKY/WX    TMP DP  RH WIND       PRES   REMARKS
ST. LOUIS INTL CLOUDY    71  61  70 S3        30.00R
SPIRIT OF STL  CLOUDY    67  63  87 CALM      29.98R
COLUMBIA       CLOUDY    66  65  96 SE6       29.97F
JEFFERSON CITY MOCLDY    67  62  84 SE3       29.97S
ROLLA          CLOUDY    62  61  96 S3        29.99R
SPRINGFIELD    CLOUDY    64  60  87 S15       29.97F
BRANSON        CLOUDY    63  63 100 SE12      30.03S
JOPLIN         CLOUDY    71  66  84 SE13G22   29.89F
WEST PLAINS    CLOUDY    63  60  90 CALM      30.06R

$$

IAZ060-094-KSZ022-034>040-054-083-096-NEZ052-066-093-250300-
...KANSAS...SOUTHEAST NEBRASKA AND IOWA...

CITY           SKY/WX    TMP DP  RH WIND       PRES   REMARKS
TOPEKA         MOCLDY    77  70  79 E8        29.86R
MANHATTAN      CLOUDY    76  68  76 SE3       29.82R
EMPORIA        CLEAR     74  70  87 SE8       29.85R
CHANUTE        CLOUDY    76  67  73 SE10      29.84F
WICHITA        CLOUDY    77  66  68 SE21G30   29.82R
OMAHA          PTCLDY    74  60  61 E6        29.84F
LINCOLN        CLEAR     76  61  59 E8        29.84S
FALLS CITY     CLEAR     75  63  66 SE12      29.85S
LAMONI         CLEAR     71  63  75 SE5       29.91S
DES MOINES     PTCLDY    76  60  57 S7        29.88F

$$





USA.gov is the U.S. government's official web portal to all federal, state and local government web resources and services.